Other Public Products
Issued by NWS Grand Forks, ND

Home | Current Version | Previous Version | Text Only | Print | Product List | Glossary Off
Versions: 1 2 3 4 5 6 7 8 9 10 11 12 13 14 15 16 17 18 19 20 21 22 23 24 25 26 27 28 29 30 31 32 33 34 35 36 37 38 39 40 41 42 43 44 45 46 47 48 49 50

000
FPUS83 KFGF 021431
OPUFGF
PRAIRIE TO PINES WEATHER ROUNDUP
NATIONAL WEATHER SERVICE EASTERN NORTH DAKOTA/GRAND FORKS ND
900 AM CDT MON MAY 02 2016

 **SATELLITE DATA USED TO AUGMENT SKY COVER AT AUTOMATED STATIONS**
 *****  WEATHER ACROSS EASTERN NORTH DAKOTA  *****

CITY           SKY/WX    TMP DP  RH WIND       PRES   REMARKS
GRAND FORKS    MOSUNNY   59  32  36 CALM      30.02F
GRAND FORKS AF MOSUNNY   57  33  39 NW5       30.02F
GRAND CITY NWS NOT AVBL
BUXTON           N/A     60  37  42 SE3         N/A
DEVILS LAKE    CLOUDY    51  39  63 SW6       30.02S
FARGO          SUNNY     54  33  45 S7        30.05F
WAHPETON ARPT  SUNNY     52  34  50 SW3       30.08S
$$

 *****  WEATHER ACROSS CENTRAL AND WESTERN NORTH DAKOTA  *****

CITY           SKY/WX    TMP DP  RH WIND       PRES   REMARKS
JAMESTOWN      LGT RAIN  51  39  63 SW9       30.04S
BISMARCK       RAIN      46  40  79 SW3       30.04S
MINOT          PTSUNNY   58  37  45 NW10      29.96F
MINOT AFB      SUNNY     54  38  55 NW13      29.95F
GARRISON         N/A     54  40  59 W10       29.97F
WILLISTON      SUNNY     58  36  43 NW14G28   30.03S
DICKINSON      CLOUDY    50  35  56 W16       30.03F
HETTINGER      CLOUDY    50  36  58 W15       30.09S
$$

 *****  OTHER OBSERVATIONS NORTHEAST NORTH DAKOTA  *****

CITY           SKY/WX    TMP DP  RH WIND       PRES   REMARKS
WALHALLA       FAIR      59  37  44 N8        30.03S
LANGDON        FAIR      57  37  47 NW6       30.03S
CAVALIER       FAIR      57  37  47 N8        30.03S
GRAFTON        FAIR      59  34  38 VRB5      30.04F
CANDO          FAIR      55  39  54 SE13      30.03S
FORT TOTTEN      N/A     52  37  57 S7        29.95S
ROLLA          FAIR      55  36  47 SE9       30.01S
RUGBY          FAIR      54  41  62 SE6       30.00R
 ***** THE ABOVE OBSERVATIONS ARE NON NWS ARE NOT QUALITY
        CONTROLLED AND MAY MIS-REPORT RAIN FOR SNOW...
$$

 *****  OTHER OBSERVATIONS SOUTHEAST NORTH DAKOTA *****

CITY           SKY/WX    TMP DP  RH WIND       PRES   REMARKS
COOPERSTOWN    NOT AVBL
VALLEY CITY    PTSUNNY   54  36  50 W8        30.06S
OAKES            N/A    N/A N/A N/A MISG        N/A
GWINNER        FAIR      54  37  54 SW9       30.06F
SHEYENNE NWR     N/A     53  38  56 SW5       29.95S
BUFFALO          N/A     56  33  42 W5          N/A
WYNDMERE         N/A     55  37  50 W6          N/A
 ***** THE ABOVE OBSERVATIONS ARE NON NWS ARE NOT QUALITY
       CONTROLLED AND MAY MIS-REPORT RAIN FOR SNOW...
$$

  *****  WEATHER ACROSS NORTHERN MINNESOTA  *****

CITY           SKY/WX    TMP DP  RH WIND       PRES   REMARKS
FLAG ISLAND    SUNNY     45  39  81 S3        30.08S
WARROAD        SUNNY     52  36  54 CALM      30.07S
ROSEAU         SUNNY     57  34  41 SE5       30.06S
HALLOCK        SUNNY     57  28  33 S6        30.02F
THF RVR FALLS  SUNNY     54  32  43 S5        30.06S
HALSTAD        NOT AVBL
FOSSTON        SUNNY     57  30  35 S3        30.06F
BAUDETTE       SUNNY     52  35  52 VRB3      30.07F
WASKISH        SUNNY     55  37  50 CALM      30.07F
CROOKSTON      SUNNY     57  34  41 S7        30.04F
$$
  *****  WEATHER ACROSS CENTRAL AND WEST MINNESOTA  *****

CITY           SKY/WX    TMP DP  RH WIND       PRES   REMARKS
BEMIDJI        SUNNY     55  34  44 SW5       30.07S
PARK RAPIDS    MOSUNNY   49  33  54 SE5       30.08F
WADENA         PTSUNNY   48  36  61 CALM      30.07F
DETROIT LAKES  SUNNY     54  37  54 CALM      30.07S
MOORHEAD       SUNNY     54  36  50 S6        30.06F
FERGUS FALLS   SUNNY     54  36  50 SW3       30.06F
ELBOW LAKE     FAIR      51  35  54 S3        30.08F
MORRIS MN      CLOUDY    54  37  54 NW3       30.08S
STAPLES        MOSUNNY   52  34  50 CALM      30.08F
WHEATON        MOSUNNY   54  39  58 CALM      30.10S
$$
  *****  WEATHER ELSEWHERE ACROSS MINNESOTA  *****

CITY           SKY/WX    TMP DP  RH WIND       PRES   REMARKS
DULUTH         MOSUNNY   49  34  56 CALM      30.11F
INTRNTL FALLS  SUNNY     49  36  61 SE3       30.09F
ELY            SUNNY     50  30  46 S3        30.11S
CLOQUET        MOSUNNY   50  34  53 CALM      30.11F
BRAINERD       SUNNY     52  33  48 S7        30.10F
HIBBING        SUNNY     45  33  63 CALM      30.11F
ALEXANDRIA     PTSUNNY   52  35  52 SW6       30.09F
SAINT CLOUD    SUNNY     50  37  61 CALM      30.11F
MINNEAPOLIS    SUNNY     52  37  56 CALM      30.12S
$$

  *****  WEATHER ACROSS SOUTH DAKOTA  *****

CITY           SKY/WX    TMP DP  RH WIND       PRES   REMARKS
SIOUX FALLS    MOSUNNY   51  40  65 NW3       30.13S
BROOKINGS      SUNNY     47  38  71 CALM      30.12S
WATERTOWN      PTSUNNY   47  38  71 CALM      30.10F
HURON          CLOUDY    47  39  74 MISG      30.12S
SISSETON         N/A     58  35  42 W7        30.06F
ABERDEEN       PTSUNNY   48  39  71 S6        30.09F
MITCHELL       MOSUNNY   49  39  68 W3        30.14S
PIERRE         CLOUDY    42  35  76 W9        30.09F
MOBRIDGE       CLOUDY    48  38  68 CALM      30.04F
RAPID CITY     PTSUNNY   47  34  60 W8        30.14S
$$

  *****  SOME WEATHER IN NEARBY STATES *****

CITY           SKY/WX    TMP DP  RH WIND       PRES   REMARKS
GLASGOW MT     MOSUNNY   49  38  65 NW9       30.12S
GREAT FALLS MT MOSUNNY   44  36  73 SW6       30.19R
CHEYENNE WY    SUNNY     34  24  67 W7        30.24S
SCOTTSBLUFF NE SUNNY     38  30  73 W10       30.22F
OMAHA NE       MOSUNNY   50  43  77 NW3       30.15S
DES MOINES IA  MOSUNNY   53  43  68 N8        30.13S
DAVENPORT IA   CLOUDY    49  46  90 N9        30.10R
CHICAGO IL     MOSUNNY   50  37  61 NE15      30.05R
EAU CLAIRE WI    N/A     54  37  52 VRB5      30.10F
LA CROSSE WI   SUNNY     49  39  68 CALM      30.12F
$$

  *****  SOME NATIONAL WEATHER *****

CITY           SKY/WX    TMP DP  RH WIND       PRES   REMARKS
LA GUARDIA NY  CLOUDY    51  46  83 SW6       30.02R FOG
RALEIGH NC     PTSUNNY   75  67  76 SW15      30.03S
ATLANTA GA     MOSUNNY   75  64  68 SE5       30.03F
NEW ORLEANS LA CLOUDY    75  71  87 E6        29.96R
OKLAHOMA CITY  PTSUNNY   51  43  74 N15       30.19R
ALBUQUERQUE NM MOSUNNY   42  33  70 NE7       30.29R
SALT LAKE CITY MOSUNNY   48  33  56 N3        30.19R
LOS ANGELES CA PTSUNNY   58  53  84 NW3       30.02R HAZE
BOISE ID       SUNNY     52  37  56 CALM      30.15R
SEATTLE WA     MOSUNNY   61  47  59 CALM      29.97R
$$

*** WEATHER ACROSS MANITOBA...SASKATCHEWAN AND ONTARIO ***
                ***ONTARIO***

CITY           SKY/WX    TMP DP  RH WIND       PRES   REMARKS
GERALDTON      MOSUNNY   46  32  57 S5        30.11F
THUNDER BAY    MOSUNNY   48  34  57 VRB3      30.13F
SIOUX LOOKOUT  MOSUNNY   50  34  53 CALM      30.08S
TORONTO        LGT RAIN  43  39  87 N13G20    29.99R
BIG TROUT LK   SUNNY     50  32  50 S3        29.95F
PICKLE LAKE    PTSUNNY   52  32  46 W3        30.04F
DRYDEN         SUNNY     54  32  43 W3        30.08F
KENORA         PTSUNNY   55  32  41 S3        30.08S
$$
                *** MANITOBA***

CITY           SKY/WX    TMP DP  RH WIND       PRES   REMARKS
BRANDON        SUNNY     52  43  71 SE5       30.02S
DAUPHIN        SUNNY     50  46  87 N6        30.04R
ISLAND LAKE    CLOUDY    48  32  53 SW3       29.97
PILOT MOUND      N/A     54  45  71 SE8         N/A
THE PAS        PTSUNNY   50  45  81 W5        30.02F
THOMPSON       PTSUNNY   54  39  58 W10       29.90
WINNIPEG       MOSUNNY   57  34  41 E3        30.04S
LYNN LAKE      SUNNY     54  32  43 NW14G21   29.88S
CHURCHILL      PTSUNNY   39  34  81 S6        29.73F
GILLAM         CLOUDY    46  41  81 W8        29.85F
$$
                ***SASKATCHEWAN***

CITY           SKY/WX    TMP DP  RH WIND       PRES   REMARKS
ESTEVAN        MOSUNNY   55  37  50 NW7       30.00S
KINDERSLEY     MOSUNNY   54  36  50 NW5       30.08S
LLOYDMINSTER   MOSUNNY   61  43  51 W7        30.06S
PRINCE ALBERT  PTSUNNY   50  41  71 CALM      30.04F
REGINA         MOSUNNY   52  36  54 NW5       30.04R
YORKTON        SUNNY     46  43  87 N5        30.05R   C1F1C2F2C3F3C4F4C5F5C6F6C7F7C8F8C9F9CaFaCbFbCcFcCdFdCe!



USA.gov is the U.S. government's official web portal to all federal, state and local government web resources and services.